GW3359 Weather Reports


time (UTC)temp
C
wind
direction
speed
KPH
gust
KPH
rain 1hr
cm
rain 24hr
cm
rain mn
cm
humidity
%
barometer
mb
20260906125505 22 91 0.0 0.0 0.00 0.00 0.00 91 1013.4
20260906125006 22 91 0.0 0.0 0.00 0.00 0.00 91 1013.4
20260906124513 22 91 0.0 0.0 0.00 0.00 0.00 91 1013.4
20260906124004 22 91 0.0 0.0 0.00 0.00 0.00 91 1013.4
20260906123507 22 91 0.0 0.0 0.00 0.00 0.00 91 1013.5
20260906123020 22 91 0.0 0.0 0.00 0.00 0.00 91 1013.4
20260906122511 22 91 0.0 0.0 0.00 0.00 0.00 91 1013.5
20260906122009 22 91 0.0 0.0 0.00 0.00 0.00 91 1013.5
20260906121504 22 91 0.0 0.0 0.00 0.00 0.00 91 1013.4
20260906121002 22 91 0.0 0.0 0.00 0.00 0.00 91 1013.4
20260906120503 22 91 0.0 0.0 0.00 0.00 0.00 91 1013.3
20260906120005 22 91 0.0 0.0 0.00 0.00 0.00 91 1013.2
20260906115504 22 91 0.0 0.0 0.00 0.00 0.00 90 1013.2
20260906115004 22 91 0.0 0.0 0.00 0.00 0.00 90 1013.2
20260906114508 22 91 0.0 0.0 0.00 0.00 0.00 90 1013.1
20260906114003 22 91 0.0 0.0 0.00 0.00 0.00 90 1013.1
20260906113503 22 91 0.0 0.0 0.00 0.00 0.00 90 1013.1
20260906113021 22 91 0.0 0.0 0.00 0.00 0.00 90 1013.0
20260906112508 22 91 0.0 0.0 0.00 0.00 0.00 90 1013.0
20260906112010 22 91 0.0 0.0 0.00 0.00 0.00 89 1012.9
20260906111524 22 91 0.0 0.0 0.00 0.00 0.00 89 1012.8
20260906111011 22 91 0.0 0.0 0.00 0.00 0.00 89 1012.7
20260906110514 22 91 0.0 0.0 0.00 0.00 0.00 89 1012.7
20260906110004 22 91 0.0 0.0 0.00 0.00 0.00 89 1012.7
20260906105503 22 91 0.0 0.0 0.00 0.00 0.00 89 1012.8
20260906105003 22 91 0.0 0.0 0.00 0.00 0.00 88 1012.7
20260906104515 22 91 0.0 0.0 0.00 0.00 0.00 88 1012.6
20260906104003 22 91 0.0 0.0 0.00 0.00 0.00 88 1012.5
20260906103503 22 91 0.0 0.0 0.00 0.00 0.00 88 1012.5
20260906103014 22 91 0.0 0.0 0.00 0.00 0.00 88 1012.4
20260906102508 22 91 0.0 0.0 0.00 0.00 0.00 88 1012.4
20260906102008 22 91 0.0 0.0 0.00 0.00 0.00 87 1012.5
20260906101521 22 91 0.0 0.0 0.00 0.00 0.00 87 1012.5
20260906101012 22 91 0.0 0.0 0.00 0.00 0.00 87 1012.6
20260906100516 22 91 0.0 0.0 0.00 0.00 0.00 87 1012.6
20260906100027 22 91 0.0 0.0 0.00 0.00 0.00 87 1012.7
20260906095515 22 91 0.0 0.0 0.00 0.00 0.00 87 1012.7
20260906095015 22 91 0.0 0.0 0.00 0.00 0.00 87 1012.7
20260906094510 22 91 0.0 6.4 0.00 0.00 0.00 87 1012.8
20260906094003 22 91 1.6 6.4 0.00 0.00 0.00 87 1012.9
20260906093503 22 213 0.0 6.4 0.00 0.00 0.00 87 1012.9
20260906093011 22 213 1.6 6.4 0.00 0.00 0.00 87 1012.8
20260906092503 22 115 0.0 0.0 0.00 0.00 0.00 87 1012.7
20260906091519 22 115 0.0 0.0 0.00 0.00 0.00 87 1012.7
20260906091007 22 115 0.0 0.0 0.00 0.00 0.00 87 1012.7
20260906090511 22 115 0.0 0.0 0.00 0.00 0.00 87 1012.5
20260906090025 22 115 0.0 0.0 0.00 0.00 0.00 87 1012.4
20260906085511 22 115 0.0 0.0 0.00 0.00 0.00 86 1012.4
20260906085014 22 115 0.0 0.0 0.00 0.00 0.00 86 1012.4
20260906084543 22 115 0.0 0.0 0.00 0.00 0.00 86 1012.4
20260906084014 23 115 0.0 0.0 0.00 0.00 0.00 85 1012.4
20260906083517 23 115 0.0 0.0 0.00 0.00 0.00 85 1012.4
20260906083015 23 115 0.0 0.0 0.00 0.00 0.00 85 1012.4
20260906082505 23 115 0.0 0.0 0.00 0.00 0.00 84 1012.4
20260906082004 23 115 0.0 0.0 0.00 0.00 0.00 84 1012.4
20260906081514 23 115 0.0 0.0 0.00 0.00 0.00 84 1012.5
20260906081007 23 115 0.0 3.2 0.00 0.00 0.00 84 1012.5
20260906080507 23 115 0.0 3.2 0.00 0.00 0.00 83 1012.5
20260906080029 23 115 0.0 6.4 0.00 0.00 0.00 83 1012.7
20260906075511 23 90 1.6 6.4 0.00 0.00 0.00 83 1012.8
20260906075013 23 85 1.6 9.7 0.00 0.00 0.00 82 1012.8
20260906074527 23 75 3.2 9.7 0.00 0.00 0.00 82 1012.8
20260906074012 24 100 0.0 1.6 0.00 0.00 0.00 81 1012.9
20260906073515 24 100 0.0 1.6 0.00 0.00 0.00 81 1012.7
20260906073038 24 100 0.0 0.0 0.00 0.00 0.00 80 1012.7
20260906072514 24 100 0.0 0.0 0.00 0.00 0.00 80 1012.8
20260906072016 24 98 0.0 4.8 0.00 0.00 0.00 80 1012.8
20260906071513 24 96 0.0 4.8 0.00 0.00 0.00 79 1012.9
20260906071007 24 105 0.0 8.0 0.00 0.00 0.00 79 1012.9
20260906070509 24 90 1.6 8.0 0.00 0.00 0.00 78 1012.9
20260906070020 25 96 3.2 8.0 0.00 0.00 0.00 78 1013.0
20260906065502 25 29 0.0 8.0 0.00 0.00 0.00 78 1013.0
20260906065002 25 169 1.6 4.8 0.00 0.00 0.00 78 1012.9
20260906064503 25 101 0.0 11.3 0.00 0.00 0.00 78 1012.8
20260906064003 25 229 0.0 11.3 0.00 0.00 0.00 78 1012.8
20260906063502 25 195 0.0 6.4 0.00 0.00 0.00 79 1012.9
20260906063004 25 162 1.6 6.4 0.00 0.00 0.00 80 1012.8
20260906062503 25 25 0.0 3.2 0.00 0.00 0.00 80 1012.9
20260906062004 25 116 0.0 3.2 0.00 0.00 0.00 79 1012.8
20260906061507 25 81 0.0 4.8 0.00 0.00 0.00 79 1012.8
20260906061004 25 81 0.0 4.8 0.00 0.00 0.00 79 1012.7
20260906060506 25 136 0.0 6.4 0.00 0.00 0.00 78 1012.9
20260906060008 26 109 0.0 6.4 0.00 0.00 0.00 77 1013.2
20260906055503 26 215 0.0 8.0 0.00 0.00 0.00 77 1013.2
20260906055003 26 211 3.2 8.0 0.00 0.00 0.00 77 1013.3
20260906054507 26 308 0.0 8.0 0.00 0.00 0.00 76 1013.4
20260906054003 26 227 3.2 8.0 0.00 0.00 0.00 76 1013.6
20260906053502 26 254 3.2 4.8 0.00 0.00 0.00 75 1013.3
20260906053006 26 217 1.6 6.4 0.00 0.00 0.00 75 1013.2
20260906052504 26 179 0.0 9.7 0.00 0.00 0.00 74 1013.2
20260906052004 26 223 1.6 16.1 0.00 0.00 0.00 73 1013.2
20260906051509 26 202 6.4 16.1 0.00 0.00 0.00 73 1013.2
20260906051004 27 205 4.8 11.3 0.00 0.00 0.00 73 1013.2
20260906050503 27 240 4.8 14.5 0.00 0.00 0.00 73 1013.2
20260906050010 26 224 1.6 14.5 0.00 0.00 0.00 73 1013.0
20260906045504 26 277 6.4 12.9 0.00 0.00 0.00 73 1013.2
20260906045004 26 248 3.2 14.5 0.00 0.00 0.00 74 1013.2
20260906044515 26 248 4.8 14.5 0.00 0.00 0.00 75 1013.3
20260906044003 26 188 3.2 16.1 0.00 0.00 0.00 77 1013.2
20260906043504 25 143 3.2 16.1 0.00 0.00 0.00 77 1013.0
20260906042502 25 178 0.0 0.0 0.00 0.00 0.00 82 1012.7
20260906042003 25 178 0.0 0.0 0.00 0.00 0.00 82 1012.7
20260906041508 25 178 0.0 0.0 0.00 0.00 0.00 81 1012.7
20260906041006 25 178 0.0 0.0 0.00 0.00 0.00 81 1012.7
20260906040505 25 178 0.0 0.0 0.00 0.00 0.00 82 1012.7
20260906040014 26 178 0.0 0.0 0.00 0.00 0.00 82 1012.7
20260906035508 26 178 0.0 0.0 0.00 0.00 0.00 82 1012.7
20260906035004 26 178 0.0 0.0 0.00 0.00 0.00 81 1012.7
20260906034526 26 178 0.0 0.0 0.00 0.00 0.00 81 1012.9
20260906034004 26 178 0.0 0.0 0.00 0.00 0.00 81 1013.0
20260906033505 26 178 0.0 0.0 0.00 0.00 0.00 81 1012.9
20260906033024 26 178 0.0 0.0 0.00 0.00 0.00 80 1012.7
20260906032504 26 178 0.0 0.0 0.00 0.00 0.00 79 1012.6
20260906032006 26 178 0.0 0.0 0.00 0.00 0.00 79 1012.5
20260906031503 26 178 0.0 0.0 0.00 0.00 0.00 79 1012.5
20260906031003 26 178 0.0 0.0 0.00 0.00 0.00 80 1012.5
20260906030503 26 178 0.0 0.0 0.00 0.00 0.00 78 1012.5
20260906030006 26 178 0.0 0.0 0.00 0.00 0.00 76 1012.5
20260906025504 26 178 0.0 0.0 0.00 0.00 0.00 77 1012.5
20260906025006 26 174 0.0 0.0 0.00 0.00 0.00 76 1012.3
20260906024512 26 117 0.0 0.0 0.00 0.00 0.00 77 1012.3
20260906024008 26 159 0.0 0.0 0.00 0.00 0.00 78 1012.2
20260906023508 27 134 0.0 0.0 0.00 0.00 0.00 78 1012.1
20260906023016 27 160 0.0 0.0 0.00 0.00 0.00 77 1011.9
20260906022507 27 175 0.0 0.0 0.00 0.00 0.00 77 1011.9
20260906022007 27 178 0.0 0.0 0.00 0.00 0.00 76 1011.9
20260906021514 27 176 0.0 0.0 0.00 0.00 0.00 75 1011.6
20260906021009 27 178 0.0 0.0 0.00 0.00 0.00 75 1011.6
20260906020508 27 177 0.0 0.0 0.00 0.00 0.00 75 1011.6
20260906020004 27 177 0.0 0.0 0.00 0.00 0.00 75 1011.5
20260906015502 28 170 0.0 0.0 0.00 0.00 0.00 74 1011.5
20260906015007 28 176 0.0 1.6 0.00 0.00 0.00 74 1011.6
20260906014523 28 177 0.0 1.6 0.00 0.00 0.00 74 1011.6
20260906014011 28 178 0.0 0.0 0.00 0.00 0.00 74 1011.6
20260906013507 28 178 0.0 1.6 0.00 0.00 0.00 72 1011.5
20260906013019 28 178 0.0 1.6 0.00 0.00 0.00 74 1011.4
20260906012510 28 178 0.0 11.3 0.00 0.00 0.00 73 1011.3
20260906012011 27 177 0.0 11.3 0.00 0.00 0.00 73 1011.4
20260906011532 27 225 1.6 11.3 0.00 0.00 0.00 74 1011.6
20260906011009 27 29 0.0 0.0 0.00 0.00 0.00 74 1011.6
20260906010509 28 30 0.0 0.0 0.00 0.00 0.00 75 1011.5
20260906010020 28 31 0.0 0.0 0.00 0.00 0.00 75 1011.5
20260906005508 28 31 0.0 0.0 0.00 0.00 0.00 74 1011.5
20260906005016 28 31 0.0 0.0 0.00 0.00 0.00 73 1011.4
20260906004512 28 31 0.0 0.0 0.00 0.00 0.00 74 1011.4
20260906004007 28 31 0.0 0.0 0.00 0.00 0.00 74 1011.3
20260906003506 28 31 0.0 0.0 0.00 0.00 0.00 73 1011.4
20260906003014 29 31 0.0 0.0 0.00 0.00 0.00 72 1011.3
20260906002507 29 31 0.0 0.0 0.00 0.00 0.00 72 1011.4
20260906002010 29 31 0.0 0.0 0.00 0.00 0.00 72 1011.4
20260906001520 30 31 0.0 0.0 0.00 0.00 0.00 69 1011.4
20260906001011 30 31 0.0 0.0 0.00 0.00 0.00 70 1011.3
20260906000515 30 31 0.0 0.0 0.00 0.00 0.00 69 1011.3
20260906000024 30 31 0.0 0.0 0.00 0.00 0.00 69 1011.2
20260905235512 31 31 0.0 0.0 0.00 0.00 0.00 68 1011.2
20260905235012 31 31 0.0 0.0 0.00 0.00 0.00 67 1011.2
20260905234525 31 31 0.0 0.0 0.00 0.00 0.00 65 1011.3
20260905234014 31 31 0.0 0.0 0.00 0.00 0.00 65 1011.3
20260905233510 32 31 0.0 0.0 0.00 0.00 0.00 63 1011.3
20260905233015 32 31 0.0 3.2 0.00 0.00 0.00 63 1011.4
20260905232508 32 31 0.0 6.4 0.00 0.00 0.00 61 1011.4
20260905232008 32 31 1.6 6.4 0.00 0.00 0.00 59 1011.2
20260905231518 32 354 0.0 4.8 0.00 0.00 0.00 60 1011.1
20260905231011 33 44 0.0 6.4 0.00 0.00 0.00 61 1011.3
20260905230511 33 342 0.0 6.4 0.00 0.00 0.00 59 1011.2
20260905230031 33 15 0.0 4.8 0.00 0.00 0.00 58 1011.2
20260905225513 34 319 1.6 4.8 0.00 0.00 0.00 57 1011.2
20260905225013 35 323 1.6 6.4 0.00 0.00 0.00 56 1011.1
20260905224530 35 120 0.0 8.0 0.00 0.00 0.00 54 1011.1
20260905224013 35 140 3.2 8.0 0.00 0.00 0.00 51 1011.1
20260905223512 35 56 1.6 6.4 0.00 0.00 0.00 54 1011.2
20260905223031 35 100 3.2 8.0 0.00 0.00 0.00 51 1011.2
20260905222519 35 115 1.6 8.0 0.00 0.00 0.00 50 1011.2
20260905222013 35 59 1.6 6.4 0.00 0.00 0.00 55 1011.2
20260905221516 35 44 1.6 8.0 0.00 0.00 0.00 52 1011.2
20260905221008 35 101 3.2 8.0 0.00 0.00 0.00 52 1011.2
20260905220510 35 46 3.2 9.7 0.00 0.00 0.00 50 1011.2
20260905220024 35 22 1.6 9.7 0.00 0.00 0.00 53 1011.2
20260905215513 35 70 3.2 9.7 0.00 0.00 0.00 48 1011.2
20260905215010 35 44 1.6 4.8 0.00 0.00 0.00 50 1011.2
20260905214530 35 83 0.0 6.4 0.00 0.00 0.00 54 1011.3
20260905214014 36 58 0.0 6.4 0.00 0.00 0.00 52 1011.3
20260905213518 36 38 0.0 8.0 0.00 0.00 0.00 54 1011.3
20260905213039 36 106 0.0 8.0 0.00 0.00 0.00 48 1011.3
20260905212518 35 64 1.6 8.0 0.00 0.00 0.00 50 1011.3
20260905212017 35 24 1.6 8.0 0.00 0.00 0.00 50 1011.3
20260905211534 35 41 3.2 8.0 0.00 0.00 0.00 50 1011.3
20260905211018 35 108 1.6 9.7 0.00 0.00 0.00 51 1011.4
20260905210513 35 71 0.0 11.3 0.00 0.00 0.00 52 1011.4
20260905210021 34 262 3.2 11.3 0.00 0.00 0.00 54 1011.5
20260905205512 34 303 0.0 3.2 0.00 0.00 0.00 57 1011.5
20260905205013 34 303 0.0 3.2 0.00 0.00 0.00 57 1011.6
20260905204527 35 303 0.0 3.2 0.00 0.00 0.00 57 1011.7
20260905204007 35 303 0.0 3.2 0.00 0.00 0.00 55 1011.8
20260905203503 36 303 0.0 9.7 0.00 0.00 0.00 53 1011.8
20260905203006 36 174 0.0 9.7 0.00 0.00 0.00 48 1011.9
20260905202503 36 236 1.6 11.3 0.00 0.00 0.00 49 1011.9
20260905202003 36 27 3.2 11.3 0.00 0.00 0.00 49 1012.0
20260905201510 36 66 4.8 9.7 0.00 0.00 0.00 50 1012.1
20260905201007 35 49 1.6 6.4 0.00 0.00 0.00 52 1012.2
20260905200507 35 38 0.0 4.8 0.00 0.00 0.00 52 1012.3
20260905200017 35 7 0.0 3.2 0.00 0.00 0.00 54 1012.4
20260905195509 35 127 0.0 3.2 0.00 0.00 0.00 52 1012.5
20260905195009 35 127 0.0 4.8 0.00 0.00 0.00 52 1012.5
20260905194524 35 127 0.0 4.8 0.00 0.00 0.00 52 1012.6
20260905194011 35 57 1.6 3.2 0.00 0.00 0.00 54 1012.6
20260905193516 35 57 0.0 8.0 0.00 0.00 0.00 53 1012.7
20260905193029 35 22 3.2 11.3 0.00 0.00 0.00 51 1012.7
20260905192504 35 105 0.0 11.3 0.00 0.00 0.00 50 1012.7
20260905192004 35 165 1.6 4.8 0.00 0.00 0.00 53 1012.7
20260905191509 35 18 0.0 3.2 0.00 0.00 0.00 54 1012.8
20260905191004 35 18 0.0 6.4 0.00 0.00 0.00 52 1012.9
20260905190503 35 38 1.6 8.0 0.00 0.00 0.00 48 1013.1
20260905190013 35 91 1.6 8.0 0.00 0.00 0.00 46 1013.2
20260905185507 35 266 0.0 9.7 0.00 0.00 0.00 50 1013.2
20260905185009 35 147 1.6 9.7 0.00 0.00 0.00 48 1013.3
20260905184521 35 49 0.0 4.8 0.00 0.00 0.00 51 1013.3
20260905184010 35 2 1.6 8.0 0.00 0.00 0.00 51 1013.4
20260905183512 35 234 3.2 8.0 0.00 0.00 0.00 48 1013.6
20260905183028 35 266 0.0 6.4 0.00 0.00 0.00 51 1013.7
20260905182514 35 192 1.6 6.4 0.00 0.00 0.00 50 1013.8
20260905182016 35 38 1.6 4.8 0.00 0.00 0.00 51 1013.8
20260905181535 35 68 0.0 3.2 0.00 0.00 0.00 53 1013.9
20260905181004 35 68 0.0 4.8 0.00 0.00 0.00 52 1014.0
20260905180506 35 68 0.0 6.4 0.00 0.00 0.00 54 1014.1
20260905180014 35 11 0.0 6.4 0.00 0.00 0.00 51 1014.1
20260905175507 35 56 1.6 4.8 0.00 0.00 0.00 52 1014.0
20260905175006 34 266 0.0 6.4 0.00 0.00 0.00 54 1014.1
20260905174523 34 181 0.0 6.4 0.00 0.00 0.00 53 1014.1
20260905174010 34 111 3.2 6.4 0.00 0.00 0.00 53 1014.2
20260905173512 34 108 0.0 8.0 0.00 0.00 0.00 56 1014.2
20260905173023 33 264 1.6 8.0 0.00 0.00 0.00 56 1014.3
20260905172512 33 240 1.6 4.8 0.00 0.00 0.00 57 1014.3
20260905172016 33 256 1.6 6.4 0.00 0.00 0.00 55 1014.3
20260905171529 33 179 0.0 6.4 0.00 0.00 0.00 58 1014.4
20260905171017 33 223 0.0 6.4 0.00 0.00 0.00 57 1014.4
20260905170515 33 202 1.6 8.0 0.00 0.00 0.00 60 1014.4
20260905170034 33 264 3.2 8.0 0.00 0.00 0.00 61 1014.4
20260905165507 32 50 0.0 9.7 0.00 0.00 0.00 62 1014.5
20260905165003 32 66 3.2 9.7 0.00 0.00 0.00 62 1014.6
20260905164516 32 37 1.6 4.8 0.00 0.00 0.00 62 1014.6
20260905164008 31 258 1.6 8.0 0.00 0.00 0.00 64 1014.7
20260905163508 31 81 0.0 8.0 0.00 0.00 0.00 65 1014.9
20260905163024 31 188 1.6 8.0 0.00 0.00 0.00 67 1014.9
20260905162515 31 44 0.0 8.0 0.00 0.00 0.00 68 1014.9
20260905162013 30 233 0.0 8.0 0.00 0.00 0.00 69 1015.0
20260905161530 30 277 0.0 8.0 0.00 0.00 0.00 68 1015.0
20260905161014 30 233 3.2 6.4 0.00 0.00 0.00 70 1015.1
20260905160515 30 293 0.0 8.0 0.00 0.00 0.00 73 1015.1
20260905160040 29 117 0.0 8.0 0.00 0.00 0.00 76 1015.1
20260905155517 29 266 0.0 4.8 0.00 0.00 0.00 76 1015.2
20260905155014 29 266 0.0 4.8 0.00 0.00 0.00 75 1015.2
20260905154534 28 75 1.6 4.8 0.00 0.00 0.00 75 1015.2
20260905154008 28 182 0.0 6.4 0.00 0.00 0.00 76 1015.2
20260905153508 28 255 1.6 6.4 0.00 0.00 0.00 77 1015.3
20260905153022 28 152 0.0 6.4 0.00 0.00 0.00 79 1015.3
20260905152512 27 179 1.6 9.7 0.00 0.00 0.00 80 1015.3
20260905152011 27 233 3.2 9.7 0.00 0.00 0.00 79 1015.4
20260905151530 27 98 0.0 1.6 0.00 0.00 0.00 81 1015.4
20260905151013 27 98 0.0 0.0 0.00 0.00 0.00 84 1015.4
20260905150514 27 98 0.0 0.0 0.00 0.00 0.00 84 1015.5
20260905150032 27 98 0.0 0.0 0.00 0.00 0.00 85 1015.5
20260905145516 26 98 0.0 0.0 0.00 0.00 0.00 85 1015.5
20260905145016 26 98 0.0 0.0 0.00 0.00 0.00 86 1015.7
20260905144536 26 98 0.0 0.0 0.00 0.00 0.00 86 1015.7
20260905144016 26 98 0.0 0.0 0.00 0.00 0.00 85 1015.7
20260905143508 26 98 0.0 0.0 0.00 0.00 0.00 87 1015.7
20260905143018 26 97 0.0 0.0 0.00 0.00 0.00 86 1015.6
20260905142512 25 96 0.0 0.0 0.00 0.00 0.00 87 1015.6
20260905142007 25 96 0.0 0.0 0.00 0.00 0.00 87 1015.6
20260905141527 25 96 0.0 0.0 0.00 0.00 0.00 88 1015.6
20260905141002 25 96 0.0 3.2 0.00 0.00 0.00 88 1015.5
20260905140504 25 98 0.0 3.2 0.00 0.00 0.00 89 1015.5
20260905140006 25 98 0.0 1.6 0.00 0.00 0.00 89 1015.5
20260905135504 24 98 0.0 1.6 0.00 0.00 0.00 89 1015.4
20260905135004 24 98 0.0 3.2 0.00 0.00 0.00 89 1015.5
20260905134510 24 98 0.0 3.2 0.00 0.00 0.00 90 1015.6
20260905134003 24 98 0.0 3.2 0.00 0.00 0.00 90 1015.6
20260905133508 23 98 1.6 3.2 0.00 0.00 0.00 91 1015.5
20260905133016 23 335 0.0 0.0 0.00 0.00 0.00 92 1015.5
20260905132508 23 335 0.0 0.0 0.00 0.00 0.00 92 1015.6
20260905132008 23 335 0.0 0.0 0.00 0.00 0.00 92 1015.6
20260905131528 23 335 0.0 0.0 0.00 0.00 0.00 92 1015.5
20260905131013 23 335 0.0 0.0 0.00 0.00 0.00 92 1015.5
20260905130512 23 335 0.0 0.0 0.00 0.00 0.00 92 1015.6
20260905130028 23 335 0.0 0.0 0.00 0.00 0.00 92 1015.6